Find KUIPER-00437

NORAD ID: 68870 Int'l Des: 2026-095G Owner: KUIP Country: US Constellation: amazon-leo operational
LEOCIRCULAR

現在のビュー

3D地球を読み込み中...

About KUIPER-00437

KUIPER-00437 (NORAD 68870) is a amazon-leo constellation satellite launched Apr 28, 2026 by KUIP of US. It operates in LEO, CIRCULAR orbit with a mass of 490.00 kg.

KUIPER-00437について

説明を読み込み中...

次回通過

Passes for default location (London). Set your location on the main map for personalized predictions.

高度履歴

Loading altitude history...

軌道要素

1 68870U 26095G 26168.41739472 .00023890 00000-0 63813-3 0 9997
2 68870 51.8774 241.3437 0007791 313.7212 46.3129 15.37945933 7764
Epoch: Jun 17, 2026 • Age: 26 hours

現在のステータス

高度 460.7 km
速度 7.64 km/s
衛星直下点 -25.45°S, 7.19°W
打ち上げ日 Apr 28, 2026
運用期間 0.1 years
タイプ internet

技術仕様

分類 Payload
質量 490.00 kg
乾燥質量 490.00 kg
総質量 490.00 kg
長さ 1.80 m
直径 0.70 m
スパン 5.00 m
形状 Box + 2 pan
製造者 KUIP
バスタイプ Kuiper
フェーズステータス In Orbit
所有者/国 KUIP/US

Most Searched